Regional Weather Roundup
Issued by NWS

Home | Current Version | Previous Version | Graphics & Text | Print | Product List | Glossary Off
Versions: 1 2 3 4 5 6 7 8 9 10 11 12 13 14 15 16 17 18 19 20 21 22 23 24 25 26 27 28 29 30 31 32 33 34 35 36 37 38 39 40 41 42 43 44 45 46 47 48 49 50

000
ASUS43 KDMX 200007
RWRIA

WEATHER ROUNDUP FOR IOWA
NATIONAL WEATHER SERVICE DES MOINES IA
700 PM CDT SUN APR 19 2015

NOTE: "FAIR" INDICATES FEW OR NO CLOUDS BELOW 12,000 FEET WITH NO
SIGNIFICANT WEATHER AND/OR OBSTRUCTIONS TO VISIBILITY.

* - THESE STATIONS ARE NOT NWS STATIONS...THUS NOT UNDER NWS
QUALITY CONTROL.  THEY ALSO DO NOT REPORT WEATHER SUCH
AS PRECIPITATION OR FOG.

IAZ001>003-012>014-020>022-031>034-043>046-200100-
   NORTHWEST IOWA

CITY           SKY/WX    TMP DP  RH WIND       PRES   REMARKS
CARROLL *      LGT RAIN  46  45  93 NW28G35   29.67S
CHEROKEE *     CLOUDY    50  42  73 N12       29.69F
DENISON *      MOSUNNY   48  48 100 N9G16     29.67F
LE MARS *      MOSUNNY   54  34  47 NW18G25   29.72F
ORANGE CITY *  MOSUNNY   52  34  50 N16G23    29.70F
SHELDON *      MOSUNNY   52  36  54 NW20G31   29.68F
SIOUX CITY     CLOUDY    55  32  41 NW32G41   29.71S
6HR MIN TEMP:  50; 6HR MAX TEMP:  56; 6HR PCP: TRACE;

SPENCER        CLOUDY    50  42  74 N12       29.68F
6HR MIN TEMP:  49; 6HR MAX TEMP:  53; 6HR PCP:  0.01;

STORM LAKE *   SUNNY     48  43  81 N13       29.68F
$$

IAZ055>058-069>071-079>083-090>094-200100-
   SOUTHWEST IOWA

CITY           SKY/WX    TMP DP  RH WIND       PRES   REMARKS
ATLANTIC *     LGT RAIN  48  46  93 N22G32    29.68R
AUDUBON *      LGT RAIN  46  43  87 NW23G29   29.68S
CLARINDA *     CLOUDY    50  45  81 N24G39    29.70R
COUNCIL BLFS * CLOUDY    50  46  87 NW12G17   29.71S
CRESTON *      LGT RAIN  48  48 100 NW29G43   29.63R
HARLAN  *      PTSUNNY   48  48 100 N15       29.72S
LAMONI         LGT RAIN  52  48  86 N20G29    29.59R FOG
6HR MIN TEMP:  52; 6HR MAX TEMP:  64; 6HR PCP:  0.10;

RED OAK *      CLOUDY    50  43  76 N22G31    29.69R
SHENANDOAH *   CLOUDY    50  43  76 N17G28    29.71R
$$

IAZ047>049-059>061-072>074-084-200100-
   CENTRAL IOWA

CITY           SKY/WX    TMP DP  RH WIND       PRES   REMARKS
AMES           LGT RAIN  50  47  89 N29G40    29.59S FOG
6HR MIN TEMP:  50; 6HR MAX TEMP:  65; 6HR PCP:  0.84;

ANKENY *       LGT RAIN  50  48  93 NW23G37   29.58R
CHARITON *     RAIN      52  50  93 NW25G33   29.55R
DES MOINES     LGT RAIN  51  46  83 N17G33    29.58R
6HR MIN TEMP:  51; 6HR MAX TEMP:  66; 6HR PCP:  0.47;

GRINNELL*      LGT RAIN  52  50  93 NW28G43   29.51F
KNOXVILLE *    CLOUDY    52  48  87 NW29G36   29.51F
MARSHALLTOWN   RAIN      51  49  92 NW30G39   29.54S FOG
6HR MIN TEMP:  51; 6HR MAX TEMP:  63; 6HR PCP:  0.86;

PELLA *        DRIZZLE   51  51 100 NW25G37   29.53R
PERRY *        LGT RAIN  50  48  93 N24G30    29.63S
$$

IAZ004>006-015-016-023>025-035-036-200100-
   NORTH CENTRAL IOWA

CITY           SKY/WX    TMP DP  RH WIND       PRES   REMARKS
ALGONA *       LGT RAIN  46  45  93 N17G25    29.65S
CLARION *      RAIN      48  48 100 NW26G37   29.62S
ESTHERVILLE    CLOUDY    48  41  76 NW15      29.65F
6HR MIN TEMP:  47; 6HR MAX TEMP:  55; 6HR PCP:  0.03;

FORT DODGE *   CLOUDY    46  43  87 NW13G21   29.65S
MASON CITY     LGT RAIN  47  44  90 NW30G41   29.61R
6HR MIN TEMP:  47; 6HR MAX TEMP:  63; 6HR PCP:  0.43;

FOREST CITY *  LGT RAIN  45  43  93 NW21G29   29.62R
IOWA FALLS *   MIX PCPN  48  45  87 NW30G39   29.58S
$$

IAZ007>011-017>019-026>030-037>042-050>054-066-200100-
   NORTHEAST IOWA

CITY           SKY/WX    TMP DP  RH WIND       PRES   REMARKS
CEDAR RAPIDS   HVY RAIN  58  56  93 W15G24    29.46R FOG
6HR MIN TEMP:  58; 6HR MAX TEMP:  72; 6HR PCP:  0.17;

CHARLES CITY * HVY RAIN  50  50 100 NW25G33   29.55R
CLINTON *      CLOUDY    55  52  88 SW7       29.48R
DECORAH *      RAIN      54  54 100 NW7       29.48F
DUBUQUE        CLOUDY    61  47  59 S9G20     29.44F
6HR MIN TEMP:  61; 6HR MAX TEMP:  77;

MONTICELLO *   CLOUDY    63  54  72 S5        29.45F
OELWEIN *      LGT RAIN  55  55 100 N10       29.47F
WATERLOO       CLOUDY    54  49  83 NW26G36   29.48S
6HR MIN TEMP:  54; 6HR MAX TEMP:  62; 6HR PCP:  0.01;

$$

IAZ064-065-067-068-078-200100-
   EAST CENTRAL IOWA

CITY           SKY/WX    TMP DP  RH WIND       PRES   REMARKS
DAVENPORT      LGT RAIN  57  54  89 S8        29.45F FOG
6HR MIN TEMP:  57; 6HR MAX TEMP:  76; 6HR PCP:  0.08;

IOWA CITY      HVY RAIN  57  55  93 W15G23    29.47S FOG
6HR MIN TEMP:  57; 6HR MAX TEMP:  72; 6HR PCP:  0.19;

MT. PLEASANT * RAIN      56  56  99 W7        29.46F
MUSCATINE *    RAIN      61  57  88 SW13G22   29.47R
QUAD CITIES    LGT RAIN  57  54  89 CALM      29.45F FOG
6HR MIN TEMP:  57; 6HR MAX TEMP:  79; 6HR PCP:  0.15;

$$

IAZ062-063-075>077-085>089-095>099-200100-
   SOUTHEAST IOWA

CITY           SKY/WX    TMP DP  RH WIND       PRES   REMARKS
BURLINGTON     RAIN      58  57  97 NW6       29.46F FOG
6HR MIN TEMP:  58; 6HR MAX TEMP:  76; 6HR PCP:  0.36;

FAIRFIELD *    DRIZZLE   57  55  94 NW8       29.46F
FORT MADISON * RAIN      57  57 100 CALM      29.47F
KEOKUK *       CLOUDY    57  57 100 CALM      29.46F
OSKALOOSA *    MOCLDY    56  53  92 NW29      29.48R
CENTERVILLE *  LGT RAIN  54  54 100 NW25G32   29.52R
OTTUMWA        CLOUDY    57  56  96 NW14      29.46F
6HR MIN TEMP:  56; 6HR MAX TEMP:  73; 6HR PCP:  0.83;

WASHINGTON *   LGT RAIN  57  57 100 NW9       29.46F
$$

ABBREVIATIONS USED IN REMARKS
   TC - TEMPERATURES IN CELSIUS
  WCI - WIND CHILL INDEX
   HX - HEAT INDEX
  VSB - VISIBILITY
$$




USA.gov is the U.S. government's official web portal to all federal, state and local government web resources and services.